Location: Dötzum
(52.0808°N, 9.8063°E)
Time: 07:23:38
(UTC+00:00)

Cosmos 2074 Rocket - Pass Details

Date: 27 May 2022
Orbit: 968 x 985 km, 82.9° (Epoch: 28 June)

Event Time Altitude Azimuth Distance (km) Brightness Sun altitude
Rises 01:44:25 0° 346° (NNW) 3,702 7.7 -10.0°
Reaches altitude 10° 01:47:02 10° 340° (NNW) 2,751 6.9 -9.8°
Maximum altitude 01:52:59 45° 270° (W) 1,316 4.5 -9.2°
Drops below altitude 10° 01:58:53 10° 200° (SSW) 2,737 5.7 -8.7°
Enters shadow 01:59:11 - 199° (SSW) 2,841 5.8 -8.7°
